Weather History for Natchez, MS

Change the Weather History Date:

Monday, September 1, 2014

  Actual Average Record
Temperature  
Mean Temperature 82 °F -  
Max Temperature 89 °F 90 °F 102 °F (2000)
Min Temperature 75 °F 69 °F 59 °F (1946)
Cooling Degree Days 17    
Growing Degree Days 32 (Base 50)    
Moisture  
Dew Point 74 °F    
Average Humidity 82    
Maximum Humidity 94    
Minimum Humidity 62    
Precipitation  
Precipitation 0.09 in - - ()
Sea Level Pressure  
Sea Level Pressure 30.03 in    
Wind  
Wind Speed 7 mph (SSE)    
Max Wind Speed 16 mph    
Max Gust Speed 25 mph    
Visibility 10 miles    
Events Thunderstorm    
Averages and records for this station are not official NWS values.
T = Trace of Precipitation, MM = Missing Value Source: NWS Daily Summary

Daily Weather History Graph

Daily Weather History Graph

Search for Another Location

Airport:

Trip Planner

Search our weather history database for the weather conditions in past years. The results will help you decide how hot, cold, wet, or windy it might be!

Date:

Astronomy

Sep. 01, 2014 Rise Set
Actual Time 6:40 AM CDT 7:28 PM CDT
Civil Twilight 6:16 AM CDT 7:53 PM CDT
Nautical Twilight 5:46 AM CDT 8:22 PM CDT
Astronomical Twilight 5:16 AM CDT 8:52 PM CDT
Moon 1:02 PM CDT (9/1) 11:55 PM CDT (9/1)
Length of Visible Light 13h 37m
Length of Day
12h 48m
Waxing Crescent, 42% of the Moon is Illuminated
Sep 1
Waxing Crescent
Sep 2
First Quarter
Sep 8
Full
Sep 15
Last Quarter
Sep 24
New

Hourly Weather History & Observations

Time (CDT) Temp. Heat Index Dew Point Humidity Pressure Visibility Wind Dir Wind Speed Gust Speed Precip Events Conditions
12:15 AM 77.0 °F - 71.6 °F 83% 30.03 in 10.0 mi SSE 5.8 mph - N/A   Clear
12:35 AM 77.0 °F - 71.6 °F 83% 30.03 in 10.0 mi South 5.8 mph - N/A   Clear
12:55 AM 77.0 °F - 73.4 °F 89% 30.03 in 10.0 mi South 5.8 mph - N/A   Clear
1:15 AM 75.2 °F - 71.6 °F 89% 30.03 in 10.0 mi South 4.6 mph - N/A   Clear
1:35 AM 75.2 °F - 71.6 °F 89% 30.03 in 10.0 mi SSE 6.9 mph - N/A   Clear
1:55 AM 75.2 °F - 71.6 °F 89% 30.03 in 10.0 mi SSE 5.8 mph - N/A   Clear
2:15 AM 75.2 °F - 73.4 °F 94% 30.03 in 10.0 mi SSE 6.9 mph - N/A   Clear
2:35 AM 75.2 °F - 73.4 °F 94% 30.03 in 10.0 mi SSE 6.9 mph - N/A   Clear
2:55 AM 75.2 °F - 71.6 °F 89% 30.03 in 10.0 mi SSE 5.8 mph - N/A   Clear
3:15 AM 75.2 °F - 71.6 °F 89% 30.03 in 10.0 mi SSE 5.8 mph - N/A   Clear
3:35 AM 75.2 °F - 71.6 °F 89% 30.03 in 10.0 mi SSE 5.8 mph - N/A   Clear
3:55 AM 75.2 °F - 71.6 °F 89% 30.02 in 10.0 mi SSE 4.6 mph - N/A   Clear
4:15 AM 75.2 °F - 71.6 °F 89% 30.03 in 8.0 mi SSE 4.6 mph - N/A   Clear
4:35 AM 75.2 °F - 71.6 °F 89% 30.02 in 9.0 mi SSE 4.6 mph - N/A   Clear
4:55 AM 75.2 °F - 71.6 °F 89% 30.03 in 9.0 mi SSE 4.6 mph - N/A   Clear
5:15 AM 75.2 °F - 71.6 °F 89% 30.03 in 8.0 mi SSE 3.5 mph - N/A   Clear
5:35 AM 75.2 °F - 73.4 °F 94% 30.03 in 8.0 mi SSE 5.8 mph - N/A   Clear
5:55 AM 75.2 °F - 73.4 °F 94% 30.03 in 8.0 mi SSE 5.8 mph - N/A   Clear
6:15 AM 75.2 °F - 73.4 °F 94% 30.03 in 8.0 mi SSE 4.6 mph - N/A   Clear
6:35 AM 75.2 °F - 73.4 °F 94% 30.03 in 9.0 mi SSE 5.8 mph - N/A   Clear
6:55 AM 75.2 °F - 73.4 °F 94% 30.03 in 8.0 mi SSE 4.6 mph - N/A   Clear
7:15 AM 75.2 °F - 73.4 °F 94% 30.04 in 8.0 mi SE 4.6 mph - N/A   Partly Cloudy
8:15 AM 78.8 °F - 75.2 °F 89% 30.05 in 10.0 mi SSE 11.5 mph - N/A   Mostly Cloudy
8:35 AM 78.8 °F - 75.2 °F 89% 30.05 in 10.0 mi SE 10.4 mph - N/A   Overcast
9:15 AM 82.4 °F 90.9 °F 77.0 °F 84% 30.06 in 10.0 mi SE 8.1 mph - N/A   Overcast
9:35 AM 82.4 °F 90.9 °F 77.0 °F 84% 30.06 in 10.0 mi SSE 10.4 mph - N/A   Mostly Cloudy
9:55 AM 84.2 °F 94.1 °F 77.0 °F 79% 30.06 in 10.0 mi South 10.4 mph - N/A   Mostly Cloudy
10:15 AM 84.2 °F 92.3 °F 75.2 °F 74% 30.07 in 10.0 mi South 10.4 mph - N/A   Mostly Cloudy
10:35 AM 84.2 °F 92.3 °F 75.2 °F 74% 30.07 in 10.0 mi South 10.4 mph - N/A   Mostly Cloudy
11:15 AM 86.0 °F 95.1 °F 75.2 °F 70% 30.07 in 10.0 mi SSE 10.4 mph 17.3 mph N/A   Mostly Cloudy
11:35 AM 87.8 °F 99.7 °F 77.0 °F 70% 30.06 in 10.0 mi SSE 10.4 mph - N/A   Scattered Clouds
12:15 PM 87.8 °F 97.6 °F 75.2 °F 66% 30.06 in 10.0 mi SE 12.7 mph - N/A   Scattered Clouds
12:35 PM 87.8 °F 97.6 °F 75.2 °F 66% 30.05 in 10.0 mi South 8.1 mph - N/A   Partly Cloudy
1:15 PM 89.6 °F 99.8 °F 75.2 °F 62% 30.04 in 10.0 mi SSW 6.9 mph - N/A   Scattered Clouds
1:35 PM 89.6 °F 99.8 °F 75.2 °F 62% 30.03 in 10.0 mi SSE 8.1 mph - N/A   Mostly Cloudy
1:55 PM 89.6 °F 99.8 °F 75.2 °F 62% 30.02 in 10.0 mi SSE 9.2 mph - N/A   Mostly Cloudy
2:15 PM 89.6 °F 99.8 °F 75.2 °F 62% 30.01 in 10.0 mi SSE 6.9 mph - N/A   Mostly Cloudy
2:35 PM 89.6 °F 99.8 °F 75.2 °F 62% 30.01 in 10.0 mi South 6.9 mph - N/A   Mostly Cloudy
2:55 PM 89.6 °F 99.8 °F 75.2 °F 62% 30.00 in 10.0 mi SE 8.1 mph - N/A   Mostly Cloudy
3:15 PM 82.4 °F 89.5 °F 75.2 °F 79% 30.01 in 10.0 mi SSE 16.1 mph 25.3 mph 0.09 in Thunderstorm Overcast
3:35 PM 78.8 °F - 71.6 °F 78% 30.00 in 10.0 mi SE 5.8 mph - 0.09 in Thunderstorm Overcast
3:55 PM 78.8 °F - 73.4 °F 83% 30.00 in 9.0 mi South 3.5 mph - 0.09 in Thunderstorm Scattered Clouds
4:15 PM 78.8 °F - 73.4 °F 83% 30.01 in 10.0 mi NE 5.8 mph - N/A   Partly Cloudy
4:35 PM 78.8 °F - 73.4 °F 83% 30.01 in 10.0 mi East 6.9 mph - N/A   Mostly Cloudy
4:55 PM 80.6 °F 86.2 °F 75.2 °F 84% 30.00 in 10.0 mi ESE 5.8 mph - N/A   Mostly Cloudy
5:15 PM 84.2 °F 94.1 °F 77.0 °F 79% 29.98 in 10.0 mi SE 9.2 mph - N/A   Partly Cloudy
5:35 PM 84.2 °F 94.1 °F 77.0 °F 79% 29.99 in 10.0 mi SSE 9.2 mph - N/A   Clear
5:55 PM 84.2 °F 94.1 °F 77.0 °F 79% 29.99 in 10.0 mi SSE 8.1 mph - N/A   Clear
6:15 PM 84.2 °F 92.3 °F 75.2 °F 74% 29.99 in 10.0 mi South 5.8 mph - N/A   Clear
6:35 PM 82.4 °F 89.5 °F 75.2 °F 79% 30.00 in 10.0 mi SSE 8.1 mph - N/A   Scattered Clouds
6:55 PM 80.6 °F 85.4 °F 73.4 °F 79% 30.00 in 10.0 mi SE 6.9 mph - N/A   Scattered Clouds
7:15 PM 78.8 °F - 71.6 °F 78% 30.01 in 10.0 mi SE 6.9 mph - N/A   Clear
7:35 PM 78.8 °F - 71.6 °F 78% 30.02 in 10.0 mi SE 10.4 mph - N/A   Clear
7:55 PM 78.8 °F - 71.6 °F 78% 30.03 in 10.0 mi SE 5.8 mph - N/A   Clear
8:15 PM 78.8 °F - 71.6 °F 78% 30.03 in 10.0 mi SE 6.9 mph - N/A   Clear
8:35 PM 78.8 °F - 71.6 °F 78% 30.03 in 10.0 mi SSE 9.2 mph - N/A   Clear
8:55 PM 78.8 °F - 71.6 °F 78% 30.03 in 10.0 mi SSE 9.2 mph - N/A   Clear
9:15 PM 77.0 °F - 71.6 °F 83% 30.03 in 10.0 mi SSE 9.2 mph - N/A   Clear
9:35 PM 77.0 °F - 71.6 °F 83% 30.02 in 10.0 mi SSE 10.4 mph - N/A   Clear
9:55 PM 77.0 °F - 71.6 °F 83% 30.02 in 10.0 mi SSE 10.4 mph - N/A   Clear
10:15 PM 77.0 °F - 71.6 °F 83% 30.01 in 10.0 mi SSE 11.5 mph - N/A   Clear
10:35 PM 77.0 °F - 71.6 °F 83% 30.02 in 10.0 mi South 8.1 mph - N/A   Clear
10:55 PM 77.0 °F - 73.4 °F 89% 30.01 in 10.0 mi SSE 9.2 mph - N/A   Clear
11:15 PM 77.0 °F - 73.4 °F 89% 30.01 in 10.0 mi SSE 10.4 mph - N/A   Clear
11:35 PM 77.0 °F - 73.4 °F 89% 30.01 in 10.0 mi South 10.4 mph - N/A   Clear
11:55 PM 77.0 °F - 73.4 °F 89% 30.00 in 10.0 mi SSE 9.2 mph - N/A   Clear